Back to catalog

DELTA 1 DEB

AliveLEO
NORAD 27729·DEBRIS·🇺🇸 United States

Launched Jul 14, 1977 from Cape Canaveral Space Force Station

Loading…

Next Passes (next 24 hours)

TLE

FreshSource: Space-Track

Epoch: Sep 14, 2026, 07:03 UTC

1 27729U 77065GH  26257.29419230  .00006266  00000-0  10433-2 0  9997
2 27729  28.6422 328.6493 0362974 188.9398 170.4571 14.32990951714892

Track DELTA 1 DEB in real time with AllMySat

Download on the App Store